Regional Weather Roundup
Issued by NWS

Home | Current Version | Previous Version | Graphics & Text | Print | Product List | Glossary On
Versions: 1 2 3 4 5 6 7 8 9 10 11 12 13 14 15 16 17 18 19 20 21 22 23 24 25 26 27 28 29 30 31 32 33 34 35 36 37 38 39 40 41 42 43 44 45 46 47 48 49 50
000
ASUS45 KBOU 261207
RWRCO

WEATHER ROUNDUP FOR COLORADO
NATIONAL WEATHER SERVICE DENVER/BOULDER CO
600 AM MDT THU MAY 26 2016

NOTE: "FAIR" INDICATES FEW OR NO CLOUDS BELOW 12000 FEET WITH NO
SIGNIFICANT WEATHER AND/OR OBSTRUCTIONS TO VISIBILITY.

COZ001>005-013-030-031-261300-
...NORTHWEST COLORADO...

CITY           SKY/WX    TMP DP  RH WIND       PRES   REMARKS
CRAIG          FAIR      34  30  85 CALM      30.05S
HAYDEN         FAIR      36  27  69 E8        30.04F
MEEKER         FAIR      37  25  61 E3        30.03S
MOUNT WERNER   NOT AVBL
STEAMBOAT SPGS FAIR      32  27  81 CALM      30.05F
WALDEN         FAIR      28  23  80 CALM      30.12R
$$

COZ006>008-011-261300-
...WEST CENTRAL VALLEYS...

CITY           SKY/WX    TMP DP  RH WIND       PRES   REMARKS
GRAND JUNCTION FAIR      48  28  46 S7        29.91S
MONTROSE       FAIR      51  22  31 E10       29.96F
EAGLE          FAIR      34  23  64 CALM      30.08R
RIFLE          MOCLDY    40  29  64 CALM      29.97F
DELTA          FAIR      50  20  30 N8        29.94S
NUCLA          FAIR      48  18  29 E10       29.98S
$$

COZ017>023-064>068-261300-
...SOUTHWEST COLORADO...

CITY           SKY/WX    TMP DP  RH WIND       PRES   REMARKS
DURANGO        CLOUDY    51  26  37 NE24      30.04R
CORTEZ         MOCLDY    42  26  53 NE5       29.97F
PAGOSA SPRINGS CLOUDY    48  26  43 W3        30.09R
TELLURIDE      MOCLDY    42  21  42 S13G18    30.13F
WOLF CREEK PAS FAIR      28  18  64 SW14      30.25R WCI  17
$$

COZ009-010-012-014-032>034-037-058>063-261300-
...CENTRAL COLORADO...

CITY           SKY/WX    TMP DP  RH WIND       PRES   REMARKS
ASPEN          FAIR      32  20  61 S7        30.05R WCI  26
BUENA VISTA    MOCLDY    35  16  45 NW9       30.08R WCI  28
COPPER MTN     NOT AVBL
BERTHOUD PASS  MOCLDY    28  18  64 SE17G23   30.24F WCI  16
COTTONWOOD PAS FAIR      43  14  31 SW8       30.14R
GUNNISON       FAIR      34  21  60 CALM      30.11S
KREMMLING      FAIR      30  27  86 CALM      30.11S
LEADVILLE      FAIR      25  12  58 NW5       30.13F WCI  19
MONARCH PASS   CLOUDY    32  18  55 SW17      30.32R WCI  21
SALIDA         FAIR      41  15  34 W7        30.15R
SUNLIGHT       FAIR      36  14  41 CALM      30.18F
WILKERSON PASS CLOUDY    34  32  93 SE5       30.23F FOG     WCI  30
$$

COZ069>075-261300-
...SAN LUIS VALLEY/SANGRE DE CRISTO MOUNTAINS...

CITY           SKY/WX    TMP DP  RH WIND       PRES   REMARKS
ALAMOSA        FAIR      33  26  75 SE5       30.05S WCI  29
LA VETA PASS   FAIR      37  25  60 S3        30.16R
SAGUACHE       FAIR      41  23  48 NW9       30.07F
$$

COZ035-036-038>040-261300-
...NORTHERN COLORADO FRONT RANGE...

CITY           SKY/WX    TMP DP  RH WIND       PRES   REMARKS
DENVER INTL AP MOCLDY    49  42  77 SW6       30.01S
DMNS CITY PARK   N/A     49  42  76 SW3G12    30.00F
AURORA         MOCLDY    46  44  91 SW5       30.02F
FRONT RANGE AP NOT AVBL
ERIE MUNI ARPT CLOUDY    49  44  84 CALM      30.00F
BOULDER MUN AP CLOUDY    54  36  50 SW7       30.00F
CENTENNIAL     MOCLDY    49  40  71 W3        30.02F
BROOMFIELD     CLOUDY    52  41  66 W3        30.02F
FORT COLLINS   FAIR      46  41  81 N6        30.01S
LONGMONT       CLOUDY    49  42  78 CALM      30.02S
$$

COZ041-046-047-076>085-087-088-261300-
...PIKES PEAK/PALMER DIVIDE AND SOUTHERN FOOTHILLS...

CITY           SKY/WX    TMP DP  RH WIND       PRES   REMARKS
COLO. SPRINGS  MOCLDY    50  38  63 N10       30.01F
A. F. ACADEMY  FAIR      45  37  76 N10       30.02F
SCHRIEVER AFB  NOT AVBL
ELLICOTT       FAIR     N/A N/A N/A N7        29.99F
FALCON         FAIR      46  37  71 N9        30.04S
FORT CARSON    FAIR      48  40  73 N12       29.98S
LIMON          MOCLDY    51  48  89 NW5       29.99S
MONUMENT HILL  MOCLDY    41  37  87 N8        30.06F
TRINIDAD       FAIR      41  25  53 W9        29.98R
$$

COZ042>045-048>051-090-091-261300-
...NORTHEAST COLORADO...

CITY           SKY/WX    TMP DP  RH WIND       PRES   REMARKS
GREELEY ARPT   MOCLDY    46  39  76 CALM      30.01S
AKRON          CLOUDY    49  43  80 NW13      29.96F
BURLINGTON     FAIR      51  43  74 N5        29.93R
WRAY           FAIR      50  50 100 SW5       29.91S
STERLING       CLOUDY    46  45  93 S3        29.96R
HOLYOKE        NOT AVBL
FORT MORGAN    CLOUDY    51  40  66 NW8       29.98F
$$

COZ086-089-092>099-261300-
...SOUTHEAST COLORADO...

CITY           SKY/WX    TMP DP  RH WIND       PRES   REMARKS
PUEBLO         FAIR      55  42  61 CALM      29.96R
LA JUNTA       CLOUDY    58  51  78 N9        29.90S
LAMAR          CLOUDY    58  52  80 NE10      29.86R
SPRINGFIELD      N/A     44  27  51 W3        29.88R
$$



USA.gov is the U.S. government's official web portal to all federal, state and local government web resources and services.